#timestamp,LO_Frequency,Hit,StdDev 
1585774815.4,286047015.1,N
1585774835.2,286047012.6,N
1585774855.0,286047016.5,N
1585774855.9,286047016.5,N
1585774875.8,286047017.6,N
1585774895.6,286047017.9,N
1585774915.5,286047023.3,Y
1585774935.3,286047018.0,P
1585774955.1,286047019.4,P
1585774975.9,286047020.4,P
1585774995.7,286047017.5,Y
1585775015.5,286047001.1,P
1585775035.4,286046998.7,N
1585775055.2,286046998.9,N
1585775075.1,286047000.3,N
1585775076.0,286047000.3,N
1585775095.8,286047006.8,N
1585775115.6,286046999.9,N
1585775135.5,286047000.7,N
1585775155.3,286046996.6,N
1585775175.1,286046997.7,N
1585775195.9,286047000.3,N
1585775215.7,286047004.1,N
1585775235.6,286047008.6,N
1585775255.4,286047008.3,N
1585775275.2,286047013.5,N
1585775295.1,286047012.7,N
1585775296.0,286047012.7,N
1585775315.8,286047016.5,N
1585775335.6,286047011.2,N
1585775355.5,286047011.3,N
1585775375.3,286047011.7,N
1585775395.2,286047009.5,N
1585775415.9,286047013.4,N
1585775435.7,286047015.5,N
1585775455.6,286047013.7,N
1585775475.4,286047009.7,N
1585775495.2,286047015.2,N
1585775515.1,286047017.6,N
1585775516.0,286047017.6,N
1585775535.8,286047021.7,Y
1585775555.7,286047017.2,P
1585775575.5,286047016.1,P
1585775595.3,286047013.2,P
1585775615.2,286047017.0,Y
1585775635.0,286047005.2,P
1585775635.9,286047005.2,N
1585775655.8,286047004.8,N
1585775675.6,286047008.6,N
1585775695.4,286047009.4,N
1585775715.3,286047014.8,Y
1585775735.1,286047009.5,P
1585775755.8,286047010.8,P
1585775775.7,286047004.2,P
1585775795.5,286047005.8,N
1585775815.4,286047005.2,N
1585775835.2,286047001.6,N
1585775855.0,286047003.5,N
1585775855.9,286047003.5,N
1585775875.8,286047001.8,N
1585775895.6,286047004.4,N
1585775915.5,286047003.9,N
1585775935.3,286047002.3,N
1585775955.1,286047003.4,N
1585775975.9,286047005.1,N
1585775995.7,286047002.7,N
1585776015.5,286046998.3,N
1585776035.4,286047001.9,N
1585776055.2,286047000.3,N
1585776075.0,286047002.4,N
1585776076.0,286047002.4,N
1585776095.8,286046998.7,N
1585776115.6,286046992.3,N
1585776135.5,286046992.8,N
1585776155.3,286046993.5,N
1585776175.1,286046993.8,N
1585776195.9,286046993.2,N
1585776215.7,286046989.1,N
1585776235.6,286046987.3,N
1585776255.4,286046987.1,N
1585776275.2,286046991.0,N
1585776295.1,286046992.8,N
1585776296.0,286046992.8,N
1585776315.8,286046993.1,N
1585776335.7,286046993.5,N
1585776355.5,286046999.7,N
1585776375.3,286047004.9,N
1585776395.2,286047009.1,N
1585776415.0,286047012.0,N
1585776415.9,286047012.0,N
1585776435.8,286047013.1,N
1585776455.6,286047013.5,N
1585776475.4,286047013.5,N
1585776495.3,286047015.4,N
1585776515.1,286047013.3,N
1585776535.8,286047013.0,N
1585776555.7,286047013.5,N
1585776575.5,286047012.2,N
1585776595.4,286047013.7,N
1585776615.2,286047016.4,N
1585776635.0,286047018.9,N
1585776635.9,286047018.9,N
1585776655.8,286047021.3,N
1585776675.6,286047021.2,N
1585776695.5,286047024.1,N
1585776715.3,286047025.4,N
1585776735.1,286047024.9,N
1585776755.9,286047022.3,N
1585776775.7,286047024.3,N
1585776795.6,286047022.5,N
1585776815.4,286047021.1,N
1585776835.2,286047016.7,N
1585776855.1,286047019.6,N
1585776856.0,286047019.6,N
1585776875.8,286047015.1,N
1585776895.7,286047009.6,N
1585776915.5,286047012.0,N
1585776935.3,286047009.9,N
1585776955.2,286047011.1,N
1585776975.0,286047009.7,N
1585776975.9,286047009.7,N
1585776995.8,286047013.3,N
1585777015.6,286047011.0,N
1585777035.4,286047016.8,Y
1585777055.3,286047000.2,P
1585777075.1,286047004.1,N
1585777095.8,286047000.8,N
1585777115.7,286046997.6,N
1585777135.5,286046997.5,N
1585777155.4,286046998.6,N
1585777175.2,286046998.3,N
1585777195.0,286047003.6,N
1585777195.9,286047003.6,N
1585777215.8,286047006.5,N
1585777235.6,286047012.4,N
1585777255.4,286047016.0,N
1585777275.3,286047020.7,Y
1585777295.1,286047019.8,P
1585777345.9,286047016.5,E
1585777355.8,286047010.0,N
1585777375.7,286046999.2,P
1585777395.5,286047001.3,N
1585777415.3,286047007.8,N
1585777435.2,286047009.3,N
1585777455.9,286047016.7,Y
1585777475.7,286047016.4,P
1585777495.6,286047014.4,N
1585777515.4,286047014.1,N
1585777535.3,286047014.2,Y
1585777555.1,286047002.6,P
1585777575.8,286047000.8,N
1585777595.7,286047000.3,N
1585777615.5,286047002.8,N
1585777635.4,286047003.7,N
1585777655.2,286047005.9,N
1585777675.0,286047006.8,N
1585777675.9,286047006.8,N
1585777695.8,286047009.4,N
1585777715.6,286047013.6,Y
1585777735.4,286047010.2,P
1585777755.3,286047012.3,P
1585777775.1,286047009.7,P
1585777795.9,286047012.2,Y
1585777815.7,286046999.7,P
1585777835.5,286047006.3,N
1585777855.4,286047008.6,N
1585777875.2,286047005.2,N
1585777895.1,286047003.1,N
1585777896.0,286047003.1,N
1585777915.8,286047003.2,N
1585777935.6,286047002.0,N
1585777955.5,286047005.1,N
1585777975.3,286047004.7,N
1585777995.2,286047004.5,N
1585778015.9,286047005.1,N
1585778035.7,286047010.0,Y
1585778055.6,286047004.7,P
1585778075.4,286047005.0,P
1585778095.2,286047006.9,P
1585778115.1,286047007.9,Y
1585778116.0,286047007.9,P
1585778135.8,286047003.4,N
1585778155.7,286047002.8,N
1585778175.5,286047005.4,N
1585778195.3,286047003.2,N
1585778215.2,286047004.6,N
1585778235.0,286047007.9,Y
1585778235.9,286047007.9,P
1585778255.8,286047002.3,N
1585778275.6,286047002.2,N
1585778295.4,286047002.6,N
1585778315.3,286047004.1,N
1585778335.1,286047004.3,N
1585778355.9,286047001.8,N
1585778375.7,286047005.9,Y
1585778395.5,286047004.0,P
